sat.trackr.live / text

‹ back to catalog

TRANSPORTER-11 OBJECT A

NORAD 60468 · 2024-149A

PAYLOAD ACTIVE UNKNOWN

§ Identity

Operator
Country
TBD
Launch date
2024-08-16
Launch site
AFWTR
Launch vehicle
Mass (kg)
RCS (m²)

External: N2YO · Heavens-Above · Gunter

§ Orbital elements

Epoch: 2026-09-22T19:53:37.958784Z

Period
93.86 min
Inclination
97.3670°
Eccentricity
0.0002031
Mean motion
15.34273946 rev/d
Perigee alt
461.7 km
Apogee alt
464.5 km
Semi-major
6,841.2 km
B*
1.8713e-4
RAAN
345.5145°
Arg perigee
203.8021°
Mean anomaly
156.3129°
Rev number
11,702

§ Raw data

TRANSPORTER-11 OBJECT A1 60468U 24149A   26265.82891156  .00006129  00000+0  18713-3 0  99952 60468  97.3670 345.5145 0002031 203.8021 156.3129 15.34273946117029

JSON: /api/v1/satellites/60468 · /tle

For live sub-satellite position, see the globe view (requires WebGL).

§ Visibility from observer

Set your observer location to see the next 7 days of passes ≥ 10°. The values pass through the URL so the page stays shareable.

No JS? Fill the form by hand. The geolocation button needs JavaScript.

§ Radio — SatNOGS DB

ModeDescriptionDownlinkUplink
BPSK S-band telemetry 2.247 GHz

1 transmitter · refreshed weekly from db.satnogs.org